Tucson Davis Monthan, AZ

8:31 PM MST on June 24, 2018 (GMT -0700)
Davis-Monthan Air Force Base

Weather History for KDMA - December, 2017

Change the Weather History Date:

Monday, December 4, 2017

  Actual Average Record
Temperature  
Mean Temperature 62 °F -  
Max Temperature 73 °F 68 °F 81 °F (1987)
Min Temperature 50 °F 41 °F 28 °F (1999)
Degree Days  
Heating Degree Days 4    
Growing Degree Days 12 (Base 50)    
Moisture  
Dew Point 37 °F    
Average Humidity 42    
Maximum Humidity 60    
Minimum Humidity 28    
Precipitation  
Precipitation 0.00 in - - ()
Sea Level Pressure  
Sea Level Pressure 29.88 in    
Wind  
Wind Speed 5 mph (WSW)    
Max Wind Speed 12 mph    
Max Gust Speed -    
Visibility 10 miles    
Events      
Averages and records for this station are not official NWS values.
T = Trace of Precipitation, MM = Missing Value Source: NWS Daily Summary

Daily Weather History Graph

Daily Weather History Graph

Search for Another Location

Airport or City:

Astronomy

Dec. 04, 2017 Rise Set
Actual Time 7:09 AM MST 5:18 PM MST
Civil Twilight 6:42 AM MST 5:45 PM MST
Nautical Twilight 6:12 AM MST 6:15 PM MST
Astronomical Twilight 5:42 AM MST 6:45 PM MST
Moon 6:48 PM MST (12/4) 8:03 AM MST (12/4)
Length of Visible Light 11h 02m
Length of Day
10h 09m
Full, 98% of the Moon is Illuminated
Dec 4
Full
Dec 10
Last Quarter
Dec 17
New
Dec 26
First Quarter
Jan 1
Full

Hourly Weather History & Observations

Time (MST) Temp. Dew Point Humidity Pressure Visibility Wind Dir Wind Speed Gust Speed Precip Events Conditions
12:58 AM 54.3 °F 34.5 °F 47% 29.87 in 10.0 mi SSE 6.9 mph - N/A   Clear
1:58 AM 54.5 °F 35.2 °F 48% 29.86 in 10.0 mi SSE 6.9 mph - N/A   Clear
2:58 AM 53.4 °F 35.2 °F 50% 29.87 in 10.0 mi ESE 4.6 mph - N/A   Clear
3:58 AM 52.5 °F 35.4 °F 52% 29.86 in 10.0 mi SSE 8.1 mph - N/A   Clear
4:58 AM 51.4 °F 34.9 °F 53% 29.86 in 10.0 mi ESE 3.5 mph - N/A   Clear
5:58 AM 51.3 °F 35.2 °F 54% 29.88 in 10.0 mi SE 4.6 mph - N/A   Clear
6:58 AM 50.0 °F 35.8 °F 58% 29.90 in 10.0 mi Calm Calm - N/A   Clear
7:58 AM 51.3 °F 37.9 °F 60% 29.91 in 10.0 mi ESE 3.5 mph - N/A   Clear
8:58 AM 57.9 °F 38.8 °F 49% 29.92 in 10.0 mi SE 6.9 mph - N/A   Clear
9:58 AM 64.2 °F 40.1 °F 41% 29.91 in 10.0 mi Calm Calm - N/A   Clear
10:58 AM 68.4 °F 39.6 °F 35% 29.90 in 10.0 mi West 3.5 mph - N/A   Clear
11:58 AM 71.8 °F 39.6 °F 31% 29.87 in 10.0 mi Calm Calm - N/A   Clear
12:58 PM 73.2 °F 38.1 °F 28% 29.85 in 10.0 mi West 5.8 mph - N/A   Clear
1:58 PM 73.4 °F 38.3 °F 28% 29.83 in 10.0 mi West 3.5 mph - N/A   Clear
2:58 PM 72.1 °F 38.1 °F 29% 29.83 in 10.0 mi North 5.8 mph - N/A   Clear
3:58 PM 71.1 °F 39.7 °F 32% 29.83 in 10.0 mi NNW 11.5 mph - N/A   Clear
4:58 PM 69.3 °F 39.7 °F 34% 29.84 in 10.0 mi NNW 11.5 mph - N/A   Clear
5:58 PM 64.8 °F 39.9 °F 40% 29.86 in 10.0 mi NNW 3.5 mph - N/A   Clear
6:58 PM 62.8 °F 39.9 °F 43% 29.88 in 10.0 mi NW 5.8 mph - N/A   Clear
7:58 PM 61.5 °F 37.6 °F 41% 29.91 in 10.0 mi WNW 8.1 mph - N/A   Clear
8:58 PM 60.3 °F 34.5 °F 38% 29.91 in 10.0 mi WNW 5.8 mph - N/A   Clear
9:58 PM 59.2 °F 32.9 °F 37% 29.91 in 10.0 mi West 4.6 mph - N/A   Partly Cloudy
10:58 PM 57.6 °F 32.2 °F 38% 29.93 in 10.0 mi WNW 8.1 mph - N/A   Overcast
11:58 PM 56.1 °F 32.2 °F 40% 29.93 in 10.0 mi South 4.6 mph - N/A   Overcast